| time (UTC) | temp F | wind direction | speed MPH | gust MPH | rain 1hr in | rain 24hr in | rain mn in | humidity % | barometer mb |
| 20260506171052 | 53 | 180 | 5.0 | 15.0 | 0.00 | 0.00 | 0.00 | 88 | 1006.6 |
| 20260506170547 | 53 | 207 | 5.0 | 15.0 | 0.00 | 0.00 | 0.00 | 88 | 1006.8 |
| 20260506170040 | 53 | 186 | 5.0 | 12.0 | 0.00 | 0.00 | 0.00 | 88 | 1006.8 |
| 20260506165535 | 53 | 176 | 5.0 | 12.0 | 0.00 | 0.00 | 0.00 | 88 | 1007.0 |
| 20260506165035 | 53 | 195 | 6.0 | 11.0 | 0.00 | 0.00 | 0.00 | 88 | 1007.1 |
| 20260506164536 | 53 | 210 | 6.0 | 15.0 | 0.00 | 0.00 | 0.00 | 88 | 1007.2 |
| 20260506164035 | 53 | 164 | 6.0 | 15.0 | 0.00 | 0.00 | 0.00 | 88 | 1007.2 |
| 20260506163534 | 54 | 176 | 5.0 | 13.0 | 0.00 | 0.00 | 0.00 | 87 | 1007.3 |
| 20260506163035 | 54 | 221 | 5.0 | 13.0 | 0.00 | 0.00 | 0.00 | 87 | 1007.5 |
| 20260506162533 | 54 | 184 | 4.0 | 12.0 | 0.00 | 0.00 | 0.00 | 88 | 1007.5 |
| 20260506162259 | 54 | 184 | 5.0 | 12.0 | 0.00 | 0.00 | 0.00 | 87 | 1007.7 |
| 20260506161533 | 54 | 188 | 5.0 | 12.0 | 0.00 | 0.00 | 0.00 | 87 | 1007.8 |
| 20260506161034 | 54 | 237 | 6.0 | 12.0 | 0.00 | 0.00 | 0.00 | 87 | 1007.8 |
| 20260506160533 | 54 | 148 | 6.0 | 12.0 | 0.00 | 0.00 | 0.00 | 87 | 1007.9 |
| 20260506160033 | 54 | 171 | 5.0 | 15.0 | 0.00 | 0.00 | 0.00 | 87 | 1008.0 |
| 20260506155533 | 54 | 184 | 6.0 | 15.0 | 0.00 | 0.00 | 0.00 | 89 | 1008.1 |
| 20260506155032 | 53 | 138 | 6.0 | 15.0 | 0.00 | 0.00 | 0.00 | 88 | 1008.1 |
| 20260506154535 | 53 | 207 | 7.0 | 15.0 | 0.00 | 0.00 | 0.00 | 89 | 1008.1 |
| 20260506154033 | 53 | 181 | 6.0 | 13.0 | 0.00 | 0.00 | 0.00 | 88 | 1008.0 |
| 20260506153532 | 53 | 173 | 7.0 | 18.0 | 0.00 | 0.00 | 0.00 | 88 | 1008.0 |
| 20260506153249 | 54 | 182 | 6.0 | 18.0 | 0.00 | 0.00 | 0.00 | 87 | 1008.2 |
| 20260506152521 | 54 | 190 | 5.0 | 14.0 | 0.00 | 0.00 | 0.00 | 87 | 1008.4 |
| 20260506152015 | 54 | 197 | 6.0 | 14.0 | 0.00 | 0.00 | 0.00 | 87 | 1008.3 |
| 20260506151734 | 54 | 167 | 6.0 | 16.0 | 0.00 | 0.00 | 0.00 | 87 | 1008.1 |
| 20260506151002 | 55 | 206 | 6.0 | 19.0 | 0.00 | 0.00 | 0.00 | 87 | 1008.0 |
| 20260506150459 | 55 | 172 | 6.0 | 19.0 | 0.00 | 0.00 | 0.00 | 86 | 1008.1 |
| 20260506145959 | 55 | 222 | 5.0 | 13.0 | 0.00 | 0.00 | 0.00 | 86 | 1008.1 |
| 20260506145725 | 56 | 192 | 6.0 | 14.0 | 0.00 | 0.00 | 0.00 | 87 | 1007.9 |
| 20260506145001 | 55 | 242 | 7.0 | 24.0 | 0.00 | 0.00 | 0.00 | 87 | 1007.9 |
| 20260506144457 | 55 | 180 | 7.0 | 24.0 | 0.00 | 0.00 | 0.00 | 88 | 1007.7 |
| 20260506143959 | 55 | 306 | 7.0 | 17.0 | 0.00 | 0.00 | 0.00 | 88 | 1007.8 |
| 20260506143455 | 54 | 178 | 6.0 | 15.0 | 0.00 | 0.00 | 0.00 | 88 | 1007.8 |
| 20260506143215 | 54 | 182 | 5.0 | 14.0 | 0.00 | 0.00 | 0.00 | 88 | 1007.8 |
| 20260506142455 | 54 | 225 | 6.0 | 14.0 | 0.00 | 0.00 | 0.00 | 88 | 1007.9 |
| 20260506141955 | 54 | 222 | 5.0 | 13.0 | 0.00 | 0.00 | 0.00 | 89 | 1008.0 |
| 20260506141723 | 54 | 231 | 4.0 | 13.0 | 0.00 | 0.00 | 0.00 | 89 | 1008.1 |
| 20260506140955 | 54 | 198 | 3.0 | 11.0 | 0.00 | 0.00 | 0.00 | 89 | 1008.2 |
| 20260506140455 | 54 | 239 | 3.0 | 9.0 | 0.00 | 0.00 | 0.00 | 89 | 1008.3 |
| 20260506135955 | 54 | 164 | 4.0 | 12.0 | 0.00 | 0.00 | 0.00 | 89 | 1008.3 |
| 20260506135454 | 53 | 211 | 4.0 | 13.0 | 0.00 | 0.00 | 0.00 | 89 | 1008.4 |
| 20260506134955 | 53 | 203 | 4.0 | 13.0 | 0.00 | 0.00 | 0.00 | 89 | 1008.4 |
| 20260506134455 | 53 | 217 | 4.0 | 15.0 | 0.00 | 0.00 | 0.00 | 90 | 1008.4 |
| 20260506133948 | 53 | 196 | 5.0 | 15.0 | 0.00 | 0.00 | 0.00 | 90 | 1008.4 |
| 20260506133442 | 53 | 236 | 5.0 | 15.0 | 0.00 | 0.00 | 0.00 | 89 | 1008.4 |
| 20260506132936 | 53 | 194 | 5.0 | 15.0 | 0.00 | 0.00 | 0.00 | 89 | 1008.3 |
| 20260506132430 | 53 | 192 | 5.0 | 12.0 | 0.00 | 0.00 | 0.00 | 89 | 1008.3 |
| 20260506132148 | 53 | 152 | 5.0 | 12.0 | 0.00 | 0.00 | 0.00 | 89 | 1008.3 |
| 20260506131418 | 53 | 217 | 5.0 | 11.0 | 0.00 | 0.00 | 0.00 | 89 | 1008.2 |
| 20260506130912 | 53 | 217 | 6.0 | 19.0 | 0.00 | 0.00 | 0.00 | 90 | 1008.2 |
| 20260506130406 | 53 | 180 | 6.0 | 19.0 | 0.00 | 0.00 | 0.00 | 89 | 1008.1 |
| 20260506125900 | 53 | 225 | 6.0 | 16.0 | 0.00 | 0.00 | 0.00 | 90 | 1008.2 |
| 20260506125355 | 53 | 236 | 6.0 | 16.0 | 0.00 | 0.00 | 0.00 | 89 | 1008.2 |
| 20260506125112 | 53 | 206 | 5.0 | 13.0 | 0.00 | 0.00 | 0.00 | 89 | 1008.2 |
| 20260506124342 | 53 | 167 | 5.0 | 12.0 | 0.00 | 0.00 | 0.00 | 89 | 1008.2 |
| 20260506123836 | 53 | 194 | 5.0 | 12.0 | 0.00 | 0.00 | 0.00 | 89 | 1008.1 |
| 20260506123331 | 53 | 156 | 5.0 | 15.0 | 0.00 | 0.00 | 0.00 | 90 | 1008.1 |
| 20260506122824 | 53 | 221 | 6.0 | 15.0 | 0.00 | 0.00 | 0.00 | 90 | 1008.1 |
| 20260506122319 | 52 | 204 | 5.0 | 13.0 | 0.00 | 0.00 | 0.00 | 90 | 1008.4 |
| 20260506122035 | 52 | 173 | 5.0 | 12.0 | 0.00 | 0.00 | 0.00 | 90 | 1008.4 |
| 20260506121306 | 52 | 210 | 5.0 | 12.0 | 0.00 | 0.00 | 0.00 | 90 | 1008.4 |
| 20260506121025 | 52 | 203 | 5.0 | 11.0 | 0.00 | 0.00 | 0.00 | 90 | 1008.5 |
| 20260506120522 | 52 | 223 | 5.0 | 11.0 | 0.00 | 0.00 | 0.00 | 90 | 1008.4 |
| 20260506115805 | 52 | 200 | 4.0 | 13.0 | 0.00 | 0.00 | 0.00 | 90 | 1008.4 |
| 20260506115307 | 52 | 198 | 4.0 | 13.0 | 0.00 | 0.00 | 0.00 | 91 | 1008.6 |
| 20260506115024 | 52 | 191 | 4.0 | 14.0 | 0.00 | 0.00 | 0.00 | 91 | 1008.6 |
| 20260506114305 | 52 | 194 | 4.0 | 14.0 | 0.00 | 0.00 | 0.00 | 90 | 1008.6 |
| 20260506113805 | 52 | 199 | 4.0 | 13.0 | 0.00 | 0.00 | 0.00 | 90 | 1008.7 |
| 20260506113749 | 52 | 203 | 4.0 | 10.0 | 0.00 | 0.00 | 0.00 | 90 | 1008.8 |
| 20260506112803 | 52 | 173 | 4.0 | 13.0 | 0.00 | 0.00 | 0.00 | 90 | 1008.7 |
| 20260506112305 | 52 | 200 | 4.0 | 13.0 | 0.00 | 0.00 | 0.00 | 90 | 1008.6 |
| 20260506111802 | 52 | 153 | 4.0 | 12.0 | 0.00 | 0.00 | 0.00 | 90 | 1008.6 |
| 20260506111748 | 52 | 200 | 4.0 | 12.0 | 0.00 | 0.00 | 0.00 | 91 | 1008.4 |
| 20260506110803 | 51 | 196 | 4.0 | 12.0 | 0.00 | 0.00 | 0.00 | 91 | 1008.5 |
| 20260506110257 | 51 | 213 | 4.0 | 12.0 | 0.00 | 0.00 | 0.00 | 91 | 1008.5 |
| 20260506110014 | 51 | 208 | 3.0 | 10.0 | 0.00 | 0.00 | 0.00 | 91 | 1008.5 |
| 20260506105244 | 51 | 229 | 2.0 | 8.0 | 0.00 | 0.00 | 0.00 | 91 | 1008.6 |
| 20260506104740 | 51 | 205 | 4.0 | 9.0 | 0.00 | 0.00 | 0.00 | 91 | 1008.6 |
| 20260506104233 | 51 | 202 | 4.0 | 12.0 | 0.00 | 0.00 | 0.00 | 91 | 1008.5 |
| 20260506103726 | 51 | 244 | 4.0 | 12.0 | 0.00 | 0.00 | 0.00 | 91 | 1008.5 |
| 20260506103220 | 51 | 184 | 5.0 | 13.0 | 0.00 | 0.00 | 0.00 | 91 | 1008.5 |
| 20260506102715 | 51 | 219 | 4.0 | 13.0 | 0.00 | 0.00 | 0.00 | 91 | 1008.6 |
| 20260506102434 | 51 | 203 | 4.0 | 12.0 | 0.00 | 0.00 | 0.00 | 91 | 1008.6 |
| 20260506101703 | 51 | 188 | 4.0 | 12.0 | 0.00 | 0.00 | 0.00 | 91 | 1008.5 |
| 20260506101156 | 51 | 202 | 4.0 | 9.0 | 0.00 | 0.00 | 0.00 | 91 | 1008.2 |
| 20260506100651 | 51 | 182 | 4.0 | 9.0 | 0.00 | 0.00 | 0.00 | 91 | 1008.3 |
| 20260506100144 | 51 | 200 | 4.0 | 11.0 | 0.00 | 0.00 | 0.00 | 91 | 1008.3 |
| 20260506095638 | 50 | 197 | 3.0 | 11.0 | 0.00 | 0.00 | 0.00 | 91 | 1008.5 |
| 20260506095356 | 50 | 172 | 3.0 | 10.0 | 0.00 | 0.00 | 0.00 | 91 | 1008.4 |
| 20260506094626 | 50 | 217 | 3.0 | 14.0 | 0.00 | 0.00 | 0.00 | 91 | 1008.4 |
| 20260506094342 | 50 | 208 | 3.0 | 14.0 | 0.00 | 0.00 | 0.00 | 91 | 1008.3 |
| 20260506093615 | 50 | 198 | 2.0 | 8.0 | 0.00 | 0.00 | 0.00 | 91 | 1008.3 |
| 20260506093332 | 50 | 215 | 2.0 | 8.0 | 0.00 | 0.00 | 0.00 | 91 | 1008.3 |
| 20260506092823 | 50 | 232 | 3.0 | 10.0 | 0.00 | 0.00 | 0.00 | 91 | 1008.3 |
| 20260506092056 | 51 | 257 | 3.0 | 10.0 | 0.00 | 0.00 | 0.00 | 90 | 1008.3 |
| 20260506091551 | 51 | 221 | 3.0 | 9.0 | 0.00 | 0.00 | 0.00 | 91 | 1008.3 |
| 20260506091044 | 51 | 216 | 3.0 | 11.0 | 0.00 | 0.00 | 0.00 | 91 | 1008.2 |
| 20260506090803 | 51 | 207 | 4.0 | 11.0 | 0.00 | 0.00 | 0.00 | 91 | 1008.3 |
| 20260506090033 | 51 | 205 | 4.0 | 9.0 | 0.00 | 0.00 | 0.00 | 91 | 1008.3 |
| 20260506085526 | 51 | 166 | 3.0 | 9.0 | 0.00 | 0.00 | 0.00 | 90 | 1008.3 |
| 20260506085021 | 51 | 171 | 3.0 | 9.0 | 0.00 | 0.00 | 0.00 | 90 | 1008.2 |
| 20260506084739 | 51 | 217 | 3.0 | 7.0 | 0.00 | 0.00 | 0.00 | 90 | 1008.2 |
| 20260506084008 | 51 | 180 | 4.0 | 14.0 | 0.00 | 0.00 | 0.00 | 90 | 1008.2 |
| 20260506083502 | 51 | 178 | 4.0 | 14.0 | 0.00 | 0.00 | 0.00 | 90 | 1008.1 |
| 20260506082956 | 51 | 190 | 3.0 | 10.0 | 0.00 | 0.00 | 0.00 | 90 | 1008.2 |
| 20260506082450 | 51 | 223 | 3.0 | 10.0 | 0.00 | 0.00 | 0.00 | 90 | 1008.1 |
| 20260506081944 | 51 | 182 | 3.0 | 9.0 | 0.00 | 0.00 | 0.00 | 89 | 1008.2 |
| 20260506081438 | 51 | 176 | 3.0 | 9.0 | 0.00 | 0.00 | 0.00 | 90 | 1008.3 |
| 20260506080932 | 51 | 217 | 3.0 | 8.0 | 0.00 | 0.00 | 0.00 | 89 | 1008.2 |
| 20260506080427 | 51 | 199 | 2.0 | 7.0 | 0.00 | 0.00 | 0.00 | 89 | 1008.3 |
| 20260506072844 | 51 | 208 | 3.0 | 11.0 | 0.00 | 0.00 | 0.00 | 88 | 1008.0 |
| 20260506072338 | 51 | 197 | 4.0 | 11.0 | 0.00 | 0.00 | 0.00 | 88 | 1007.9 |
| 20260506072059 | 51 | 193 | 3.0 | 11.0 | 0.00 | 0.00 | 0.00 | 88 | 1007.9 |
| 20260506071553 | 51 | 167 | 3.0 | 13.0 | 0.00 | 0.00 | 0.00 | 88 | 1007.9 |
| 20260506071308 | 51 | 233 | 4.0 | 13.0 | 0.00 | 0.00 | 0.00 | 88 | 1007.8 |
| 20260506070322 | 51 | 200 | 3.0 | 10.0 | 0.00 | 0.00 | 0.00 | 88 | 1007.7 |
| 20260506062319 | 52 | 221 | 5.0 | 13.0 | 0.00 | 0.00 | 0.00 | 87 | 1007.7 |
| 20260506062038 | 52 | 191 | 5.0 | 12.0 | 0.00 | 0.00 | 0.00 | 87 | 1007.7 |
| 20260506061318 | 52 | 195 | 5.0 | 13.0 | 0.00 | 0.00 | 0.00 | 87 | 1007.6 |
| 20260506060817 | 51 | 168 | 5.0 | 13.0 | 0.00 | 0.00 | 0.00 | 87 | 1007.6 |
| 20260506060316 | 51 | 196 | 3.0 | 11.0 | 0.00 | 0.00 | 0.00 | 87 | 1007.5 |
| 20260506051252 | 51 | 210 | 4.0 | 12.0 | 0.00 | 0.00 | 0.00 | 87 | 1007.7 |
| 20260506050751 | 51 | 167 | 3.0 | 10.0 | 0.00 | 0.00 | 0.00 | 87 | 1007.7 |
| 20260506050250 | 51 | 246 | 3.0 | 14.0 | 0.00 | 0.00 | 0.00 | 87 | 1007.7 |
| 20260506044750 | 52 | 241 | 5.0 | 12.0 | 0.00 | 0.00 | 0.00 | 86 | 1007.9 |
| 20260506044521 | 52 | 193 | 4.0 | 14.0 | 0.00 | 0.00 | 0.00 | 86 | 1007.8 |
| 20260506043750 | 52 | 210 | 5.0 | 14.0 | 0.00 | 0.00 | 0.00 | 85 | 1007.7 |
| 20260506043736 | 52 | 253 | 4.0 | 12.0 | 0.00 | 0.00 | 0.00 | 85 | 1007.7 |
| 20260506042748 | 52 | 234 | 5.0 | 12.0 | 0.00 | 0.00 | 0.00 | 86 | 1007.7 |
| 20260506042246 | 52 | 200 | 6.0 | 16.0 | 0.00 | 0.00 | 0.00 | 86 | 1007.6 |
| 20260506041746 | 52 | 210 | 5.0 | 16.0 | 0.00 | 0.00 | 0.00 | 86 | 1007.6 |
| 20260506041247 | 52 | 181 | 4.0 | 15.0 | 0.00 | 0.00 | 0.00 | 85 | 1007.6 |
| 20260506040745 | 53 | 175 | 3.0 | 10.0 | 0.00 | 0.00 | 0.00 | 86 | 1007.6 |
| 20260506040244 | 53 | 192 | 4.0 | 10.0 | 0.00 | 0.00 | 0.00 | 86 | 1007.5 |
| 20260506040004 | 53 | 231 | 3.0 | 10.0 | 0.00 | 0.00 | 0.00 | 86 | 1007.6 |
| 20260506035504 | 53 | 209 | 3.0 | 12.0 | 0.00 | 0.00 | 0.00 | 86 | 1007.6 |
| 20260506034739 | 53 | 180 | 3.0 | 12.0 | 0.00 | 0.00 | 0.00 | 86 | 1007.6 |
| 20260506034237 | 53 | 205 | 3.0 | 9.0 | 0.00 | 0.00 | 0.00 | 86 | 1007.5 |
| 20260506033735 | 53 | 177 | 4.0 | 10.0 | 0.00 | 0.00 | 0.00 | 86 | 1007.5 |
| 20260506033236 | 53 | 187 | 5.0 | 11.0 | 0.00 | 0.00 | 0.00 | 85 | 1007.6 |
| 20260506032734 | 53 | 168 | 4.0 | 11.0 | 0.00 | 0.00 | 0.00 | 85 | 1007.6 |
| 20260506032234 | 53 | 203 | 3.0 | 9.0 | 0.00 | 0.00 | 0.00 | 85 | 1007.5 |
| 20260506031952 | 53 | 161 | 2.0 | 7.0 | 0.00 | 0.00 | 0.00 | 85 | 1007.4 |
| 20260506031232 | 53 | 166 | 2.0 | 8.0 | 0.00 | 0.00 | 0.00 | 85 | 1007.4 |
| 20260506030955 | 53 | 183 | 2.0 | 8.0 | 0.00 | 0.00 | 0.00 | 85 | 1007.5 |
| 20260506030230 | 53 | 177 | 2.0 | 7.0 | 0.00 | 0.00 | 0.00 | 85 | 1007.7 |
| 20260506025730 | 53 | 158 | 2.0 | 7.0 | 0.00 | 0.00 | 0.00 | 85 | 1007.7 |
| 20260506025230 | 53 | 175 | 2.0 | 6.0 | 0.00 | 0.00 | 0.00 | 84 | 1007.8 |
| 20260506024731 | 53 | 177 | 3.0 | 8.0 | 0.00 | 0.00 | 0.00 | 84 | 1007.6 |
| 20260506024231 | 53 | 183 | 3.0 | 11.0 | 0.00 | 0.00 | 0.00 | 83 | 1007.7 |
| 20260506023730 | 54 | 219 | 3.0 | 11.0 | 0.00 | 0.00 | 0.00 | 83 | 1007.7 |
| 20260506023230 | 54 | 230 | 3.0 | 7.0 | 0.00 | 0.00 | 0.00 | 82 | 1007.5 |
| 20260506022728 | 55 | 199 | 3.0 | 7.0 | 0.00 | 0.00 | 0.00 | 81 | 1007.6 |
| 20260506022229 | 55 | 165 | 3.0 | 7.0 | 0.00 | 0.00 | 0.00 | 81 | 1007.7 |
| 20260506021722 | 55 | 201 | 3.0 | 7.0 | 0.00 | 0.00 | 0.00 | 80 | 1007.7 |
| 20260506021436 | 56 | 196 | 3.0 | 7.0 | 0.00 | 0.00 | 0.00 | 79 | 1007.7 |
| 20260506020712 | 56 | 135 | 4.0 | 9.0 | 0.00 | 0.00 | 0.00 | 79 | 1007.8 |
| 20260506020432 | 57 | 185 | 4.0 | 10.0 | 0.00 | 0.00 | 0.00 | 78 | 1007.7 |
| 20260506015658 | 57 | 205 | 4.0 | 10.0 | 0.00 | 0.00 | 0.00 | 78 | 1007.8 |
| 20260506015151 | 57 | 180 | 3.0 | 9.0 | 0.00 | 0.00 | 0.00 | 78 | 1007.8 |
| 20260506014645 | 57 | 186 | 3.0 | 11.0 | 0.00 | 0.00 | 0.00 | 78 | 1007.9 |
| 20260506014139 | 57 | 186 | 2.0 | 11.0 | 0.00 | 0.00 | 0.00 | 78 | 1007.8 |
| 20260506013632 | 57 | 186 | 1.0 | 6.0 | 0.00 | 0.00 | 0.00 | 78 | 1007.8 |
| 20260506013126 | 57 | 181 | 1.0 | 6.0 | 0.00 | 0.00 | 0.00 | 78 | 1007.8 |
| 20260506012621 | 57 | 221 | 0.0 | 6.0 | 0.00 | 0.00 | 0.00 | 78 | 1007.7 |
| 20260506012120 | 57 | 168 | 2.0 | 7.0 | 0.00 | 0.00 | 0.00 | 77 | 1007.6 |
| 20260506011608 | 57 | 168 | 4.0 | 10.0 | 0.00 | 0.00 | 0.00 | 77 | 1007.5 |
| 20260506011550 | 57 | 135 | 3.0 | 10.0 | 0.00 | 0.00 | 0.00 | 76 | 1007.5 |
| 20260506010606 | 58 | 176 | 4.0 | 12.0 | 0.00 | 0.00 | 0.00 | 76 | 1007.4 |
| 20260506010103 | 58 | 166 | 4.0 | 12.0 | 0.00 | 0.00 | 0.00 | 76 | 1007.4 |
| 20260506005602 | 58 | 207 | 3.0 | 8.0 | 0.00 | 0.00 | 0.00 | 75 | 1007.3 |
| 20260506005321 | 59 | 157 | 3.0 | 8.0 | 0.00 | 0.00 | 0.00 | 74 | 1007.4 |
| 20260506004602 | 59 | 244 | 3.0 | 8.0 | 0.00 | 0.00 | 0.00 | 74 | 1007.4 |
| 20260506004102 | 59 | 261 | 3.0 | 11.0 | 0.00 | 0.00 | 0.00 | 73 | 1007.4 |
| 20260506003600 | 60 | 242 | 3.0 | 13.0 | 0.00 | 0.00 | 0.00 | 73 | 1007.3 |
| 20260506003100 | 60 | 178 | 3.0 | 13.0 | 0.00 | 0.00 | 0.00 | 72 | 1007.3 |
| 20260506002600 | 60 | 224 | 3.0 | 11.0 | 0.00 | 0.00 | 0.00 | 72 | 1007.1 |
| 20260506002100 | 60 | 175 | 3.0 | 11.0 | 0.00 | 0.00 | 0.00 | 72 | 1006.9 |
| 20260506001600 | 61 | 171 | 4.0 | 11.0 | 0.00 | 0.00 | 0.00 | 71 | 1006.9 |
| 20260506001058 | 61 | 150 | 5.0 | 12.0 | 0.00 | 0.00 | 0.00 | 70 | 1006.7 |
| 20260506000557 | 62 | 159 | 5.0 | 12.0 | 0.00 | 0.00 | 0.00 | 70 | 1006.4 |
| 20260506000100 | 62 | 209 | 4.0 | 10.0 | 0.00 | 0.00 | 0.00 | 69 | 1006.2 |
| 20260505235558 | 63 | 197 | 4.0 | 13.0 | 0.00 | 0.00 | 0.00 | 68 | 1006.1 |
| 20260505235058 | 63 | 186 | 5.0 | 14.0 | 0.00 | 0.00 | 0.00 | 67 | 1006.1 |
| 20260505234559 | 64 | 198 | 3.0 | 14.0 | 0.00 | 0.00 | 0.00 | 68 | 1006.2 |
| 20260505234052 | 64 | 171 | 0.0 | 5.0 | 0.00 | 0.00 | 0.00 | 69 | 1006.2 |
| 20260505233806 | 64 | 260 | 1.0 | 9.0 | 0.00 | 0.00 | 0.00 | 69 | 1006.0 |
| 20260505233039 | 64 | 260 | 4.0 | 20.0 | 0.00 | 0.00 | 0.00 | 69 | 1005.9 |
| 20260505232533 | 63 | 236 | 6.0 | 20.0 | 0.00 | 0.00 | 0.00 | 71 | 1006.2 |
| 20260505232228 | 59 | 252 | 9.0 | 25.0 | 0.00 | 0.00 | 0.00 | 77 | 1005.8 |
| 20260505232114 | 61 | 274 | 8.0 | 25.0 | 0.00 | 0.00 | 0.00 | 73 | 1005.9 |
| 20260505231015 | 56 | 19 | 8.0 | 17.0 | 0.00 | 0.00 | 0.00 | 80 | 1006.6 |
| 20260505230509 | 55 | 236 | 7.0 | 15.0 | 0.00 | 0.00 | 0.00 | 80 | 1005.5 |
| 20260505230004 | 55 | 192 | 6.0 | 16.0 | 0.00 | 0.00 | 0.00 | 80 | 1004.9 |
| 20260505225718 | 55 | 194 | 6.0 | 21.0 | 0.00 | 0.00 | 0.00 | 80 | 1004.6 |
| 20260505224951 | 55 | 155 | 7.0 | 20.0 | 0.00 | 0.00 | 0.00 | 80 | 1004.5 |
| 20260505224445 | 55 | 211 | 7.0 | 21.0 | 0.00 | 0.00 | 0.00 | 80 | 1004.4 |
| 20260505223939 | 56 | 181 | 6.0 | 20.0 | 0.00 | 0.00 | 0.00 | 80 | 1004.3 |
| 20260505223433 | 56 | 235 | 7.0 | 15.0 | 0.00 | 0.00 | 0.00 | 79 | 1004.3 |
| 20260505222927 | 56 | 203 | 7.0 | 19.0 | 0.00 | 0.00 | 0.00 | 79 | 1004.2 |
| 20260505222421 | 57 | 212 | 7.0 | 19.0 | 0.00 | 0.00 | 0.00 | 78 | 1004.2 |
| 20260505221916 | 57 | 273 | 7.0 | 18.0 | 0.00 | 0.00 | 0.00 | 78 | 1004.2 |
| 20260505221634 | 57 | 261 | 6.0 | 18.0 | 0.00 | 0.00 | 0.00 | 78 | 1004.1 |
| 20260505220903 | 57 | 190 | 7.0 | 20.0 | 0.00 | 0.00 | 0.00 | 78 | 1003.8 |
| 20260505220844 | 57 | 144 | 8.0 | 20.0 | 0.00 | 0.00 | 0.00 | 78 | 1003.8 |
| 20260505215852 | 57 | 173 | 8.0 | 19.0 | 0.00 | 0.00 | 0.00 | 78 | 1003.9 |
| 20260505215345 | 57 | 242 | 7.0 | 22.0 | 0.00 | 0.00 | 0.00 | 78 | 1003.9 |
| 20260505214841 | 57 | 207 | 6.0 | 22.0 | 0.00 | 0.00 | 0.00 | 78 | 1004.0 |
| 20260505214333 | 57 | 277 | 7.0 | 16.0 | 0.00 | 0.00 | 0.00 | 78 | 1003.9 |
| 20260505213828 | 58 | 248 | 6.0 | 16.0 | 0.00 | 0.00 | 0.00 | 77 | 1004.1 |
| 20260505213321 | 58 | 220 | 6.0 | 16.0 | 0.00 | 0.00 | 0.00 | 77 | 1003.9 |
| 20260505212815 | 58 | 260 | 6.0 | 15.0 | 0.00 | 0.00 | 0.00 | 77 | 1003.7 |
| 20260505212528 | 58 | 215 | 6.0 | 15.0 | 0.00 | 0.00 | 0.00 | 78 | 1003.7 |
| 20260505211803 | 57 | 228 | 6.0 | 22.0 | 0.00 | 0.00 | 0.00 | 78 | 1003.6 |
| 20260505211258 | 57 | 192 | 8.0 | 22.0 | 0.00 | 0.00 | 0.00 | 78 | 1003.7 |
| 20260505210752 | 58 | 202 | 9.0 | 24.0 | 0.00 | 0.00 | 0.00 | 77 | 1003.8 |
| 20260505210245 | 58 | 175 | 8.0 | 24.0 | 0.00 | 0.00 | 0.00 | 77 | 1003.7 |
| 20260505205740 | 58 | 223 | 8.0 | 20.0 | 0.00 | 0.00 | 0.00 | 77 | 1003.6 |
| 20260505205455 | 59 | 192 | 8.0 | 20.0 | 0.00 | 0.00 | 0.00 | 76 | 1003.5 |
| 20260505204727 | 59 | 176 | 7.0 | 18.0 | 0.00 | 0.00 | 0.00 | 75 | 1003.6 |
| 20260505204222 | 60 | 201 | 6.0 | 18.0 | 0.00 | 0.00 | 0.00 | 75 | 1003.8 |
| 20260505203715 | 60 | 219 | 6.0 | 17.0 | 0.00 | 0.00 | 0.00 | 75 | 1003.8 |
| 20260505203209 | 60 | 208 | 6.0 | 17.0 | 0.00 | 0.00 | 0.00 | 74 | 1003.7 |
| 20260505202703 | 60 | 245 | 6.0 | 16.0 | 0.00 | 0.00 | 0.00 | 75 | 1003.9 |
| 20260505202158 | 60 | 235 | 5.0 | 17.0 | 0.00 | 0.00 | 0.00 | 76 | 1003.8 |
| 20260505201652 | 60 | 191 | 6.0 | 17.0 | 0.00 | 0.00 | 0.00 | 76 | 1003.7 |
| 20260505201145 | 60 | 250 | 7.0 | 16.0 | 0.00 | 0.00 | 0.00 | 75 | 1003.9 |
| 20260505200903 | 60 | 274 | 7.0 | 20.0 | 0.00 | 0.00 | 0.00 | 74 | 1004.0 |
| 20260505200134 | 60 | 194 | 6.0 | 27.0 | 0.00 | 0.00 | 0.00 | 74 | 1003.9 |
| 20260505195627 | 60 | 200 | 7.0 | 27.0 | 0.00 | 0.00 | 0.00 | 74 | 1004.0 |
| 20260505195349 | 60 | 163 | 6.0 | 16.0 | 0.00 | 0.00 | 0.00 | 75 | 1004.0 |
| 20260505194617 | 60 | 177 | 6.0 | 13.0 | 0.00 | 0.00 | 0.00 | 76 | 1004.2 |
| 20260505194109 | 59 | 192 | 6.0 | 16.0 | 0.00 | 0.00 | 0.00 | 77 | 1004.3 |
| 20260505193605 | 59 | 205 | 8.0 | 16.0 | 0.00 | 0.00 | 0.00 | 77 | 1004.4 |
| 20260505193058 | 59 | 267 | 7.0 | 16.0 | 0.00 | 0.00 | 0.00 | 78 | 1004.5 |
| 20260505192551 | 58 | 266 | 6.0 | 15.0 | 0.00 | 0.00 | 0.00 | 78 | 1004.5 |
| 20260505192046 | 58 | 201 | 6.0 | 20.0 | 0.00 | 0.00 | 0.00 | 78 | 1004.6 |
| 20260505191541 | 58 | 188 | 6.0 | 17.0 | 0.00 | 0.00 | 0.00 | 78 | 1004.8 |
| 20260505191033 | 59 | 178 | 6.0 | 17.0 | 0.00 | 0.00 | 0.00 | 77 | 1004.9 |
| 20260505190746 | 59 | 265 | 7.0 | 15.0 | 0.00 | 0.00 | 0.00 | 77 | 1005.0 |
| 20260505190025 | 59 | 247 | 9.0 | 18.0 | 0.00 | 0.00 | 0.00 | 78 | 1005.1 |
| 20260505185526 | 59 | 248 | 9.0 | 20.0 | 0.00 | 0.00 | 0.00 | 78 | 1005.1 |
| 20260505185246 | 59 | 196 | 9.0 | 23.0 | 0.00 | 0.00 | 0.00 | 78 | 1005.2 |
| 20260505184525 | 59 | 184 | 10.0 | 23.0 | 0.00 | 0.00 | 0.00 | 76 | 1005.3 |
| 20260505184512 | 60 | 196 | 9.0 | 20.0 | 0.00 | 0.00 | 0.00 | 77 | 1005.2 |
| 20260505183525 | 60 | 160 | 8.0 | 19.0 | 0.00 | 0.00 | 0.00 | 77 | 1005.2 |
| 20260505183026 | 59 | 157 | 9.0 | 20.0 | 0.00 | 0.00 | 0.00 | 78 | 1005.2 |
| 20260505182746 | 58 | 169 | 9.0 | 20.0 | 0.00 | 0.00 | 0.00 | 78 | 1005.3 |
| 20260505182027 | 59 | 190 | 8.0 | 18.0 | 0.00 | 0.00 | 0.00 | 77 | 1005.3 |
| 20260505181527 | 58 | 178 | 10.0 | 21.0 | 0.00 | 0.00 | 0.00 | 78 | 1005.2 |
| 20260505181026 | 58 | 184 | 11.0 | 21.0 | 0.00 | 0.00 | 0.00 | 79 | 1005.2 |
| 20260505180526 | 58 | 140 | 11.0 | 21.0 | 0.00 | 0.00 | 0.00 | 80 | 1005.3 |
| 20260505180025 | 57 | 180 | 10.0 | 24.0 | 0.00 | 0.00 | 0.00 | 80 | 1005.2 |
| 20260505175525 | 57 | 223 | 11.0 | 25.0 | 0.00 | 0.00 | 0.00 | 79 | 1005.4 |
| 20260505175026 | 58 | 186 | 10.0 | 25.0 | 0.00 | 0.00 | 0.00 | 77 | 1005.5 |
| 20260505174526 | 59 | 182 | 9.0 | 20.0 | 0.00 | 0.00 | 0.00 | 76 | 1005.6 |
| 20260505174025 | 60 | 171 | 8.0 | 20.0 | 0.00 | 0.00 | 0.00 | 77 | 1005.6 |
| 20260505173519 | 59 | 202 | 8.0 | 18.0 | 0.00 | 0.00 | 0.00 | 79 | 1005.7 |
| 20260505173451 | 58 | 186 | 9.0 | 20.0 | 0.00 | 0.00 | 0.00 | 79 | 1005.7 |
| 20260505172508 | 58 | 202 | 9.0 | 26.0 | 0.00 | 0.00 | 0.00 | 78 | 1005.8 |
| 20260505172001 | 59 | 179 | 8.0 | 26.0 | 0.00 | 0.00 | 0.00 | 75 | 1006.0 |
| 20260505171723 | 60 | 157 | 8.0 | 19.0 | 0.00 | 0.00 | 0.00 | 75 | 1006.0 |